Christchurch, New Zealand

3:16 PM NZDT on September 26, 2017 (GMT +1300)
Christchurch

Weather History for 93780 - October, 2013

Change the Weather History Date:

Monday, October 21, 2013

  Actual Average Record
Temperature  
Mean Temperature 56 °F -  
Max Temperature 69 °F 61 °F - ()
Min Temperature 42 °F 42 °F - ()
Degree Days  
Heating Degree Days 10    
Growing Degree Days 6 (Base 50)    
Moisture  
Dew Point 42 °F    
Average Humidity 58    
Maximum Humidity 93    
Minimum Humidity 32    
Precipitation  
Precipitation 0.00 in - - ()
Sea Level Pressure  
Sea Level Pressure 29.83 in    
Wind  
Wind Speed 8 mph ()    
Max Wind Speed 34 mph    
Max Gust Speed 46 mph    
Visibility 6.2 miles    
Events      
T = Trace of Precipitation, MM = Missing Value Source: Averaged Metar Reports

Daily Weather History Graph

Daily Weather History Graph

Search for Another Location

Airport or City:

Trip Planner

Search our weather history database for the weather conditions in past years. The results will help you decide how hot, cold, wet, or windy it might be!

Date:

Astronomy

Oct. 21, 2013 Rise Set
Actual Time 6:28 AM NZDT 8:00 PM NZDT
Civil Twilight 5:59 AM NZDT 8:30 PM NZDT
Nautical Twilight 5:22 AM NZDT 9:07 PM NZDT
Astronomical Twilight 4:44 AM NZDT 9:46 PM NZDT
Moon 10:18 PM NZDT (10/21) 7:32 AM NZDT (10/21)
Length of Visible Light 14h 31m
Length of Day
13h 31m
Waning Gibbous, 96% of the Moon is Illuminated
Oct 21
Waning Gibbous
Oct 27
Last Quarter
Nov 4
New
Nov 10
First Quarter
Nov 18
Full

Hourly Weather History & Observations

Time (NZDT) Temp. Windchill Dew Point Humidity Pressure Visibility Wind Dir Wind Speed Gust Speed Precip Events Conditions
12:00 AM 48.2 °F - 44.6 °F 87% 29.98 in 6.2 mi NW 3.5 mph - N/A   Unknown
12:30 AM 48.2 °F - 44.6 °F 87% 29.98 in 6.2 mi NNW 5.8 mph - N/A   Unknown
1:00 AM 50.0 °F - 44.6 °F 82% 29.95 in 6.2 mi North 4.6 mph - N/A   Unknown
1:30 AM 48.2 °F - 44.6 °F 87% 29.95 in 6.2 mi North 3.5 mph - N/A   Unknown
2:00 AM 48.2 °F - 44.6 °F 87% 29.92 in 6.2 mi SE 1.2 mph - N/A   Unknown
2:30 AM 46.4 °F - 44.6 °F 93% 29.92 in 6.2 mi NW 2.3 mph - N/A   Unknown
3:00 AM 46.4 °F - 42.8 °F 87% 29.89 in 6.2 mi Calm Calm - N/A   Unknown
3:30 AM 44.6 °F - 42.8 °F 93% 29.89 in 6.2 mi NW 1.2 mph - N/A   Unknown
4:00 AM 42.8 °F - 41.0 °F 93% 29.89 in 6.2 mi North 1.2 mph - N/A   Unknown
4:30 AM 44.6 °F - 42.8 °F 93% 29.86 in 6.2 mi ESE 1.2 mph - N/A   Unknown
5:00 AM 44.6 °F - 42.8 °F 93% 29.86 in 6.2 mi NNW 2.3 mph - N/A   Unknown
5:30 AM 44.6 °F 43.1 °F 42.8 °F 93% 29.86 in 6.2 mi East 3.5 mph - N/A   Unknown
6:00 AM 46.4 °F 44.3 °F 44.6 °F 93% 29.86 in 6.2 mi East 4.6 mph - N/A   Unknown
6:30 AM 53.6 °F - 39.2 °F 58% 29.86 in 6.2 mi NNW 6.9 mph - N/A   Unknown
7:00 AM 48.2 °F - 44.6 °F 87% 29.86 in 6.2 mi ESE 6.9 mph - N/A   Unknown
7:30 AM 53.6 °F - 42.8 °F 67% 29.86 in 6.2 mi SW 5.8 mph - N/A   Unknown
8:00 AM 55.4 °F - 41.0 °F 58% 29.86 in 6.2 mi North 1.2 mph - N/A   Unknown
8:30 AM 59.0 °F - 35.6 °F 42% 29.86 in 6.2 mi SSW 1.2 mph - N/A   Unknown
9:00 AM 62.6 °F - 33.8 °F 34% 29.86 in 6.2 mi West 5.8 mph - N/A   Unknown
9:30 AM 62.6 °F - 32.0 °F 32% 29.86 in 6.2 mi WNW 17.3 mph - N/A   Unknown
10:00 AM 62.6 °F - 32.0 °F 32% 29.89 in 6.2 mi WNW 11.5 mph - N/A   Unknown
10:30 AM 62.6 °F - 33.8 °F 34% 29.89 in 6.2 mi WNW 4.6 mph - N/A   Unknown
11:00 AM 64.4 °F - 33.8 °F 32% 29.89 in 6.2 mi West 5.8 mph - N/A   Unknown
11:30 AM 64.4 °F - 39.2 °F 40% 29.89 in 6.2 mi West 5.8 mph - N/A   Unknown
12:00 PM 66.2 °F - 41.0 °F 40% 29.89 in 6.2 mi West 4.6 mph - N/A   Unknown
12:30 PM 68.0 °F - 42.8 °F 40% 29.86 in 6.2 mi WNW 9.2 mph - N/A   Unknown
1:00 PM 69.8 °F - 44.6 °F 40% 29.86 in 6.2 mi WNW 12.7 mph - N/A   Unknown
1:30 PM 69.8 °F - 42.8 °F 38% 29.86 in 6.2 mi WNW 17.3 mph - N/A   Unknown
2:00 PM 69.8 °F - 42.8 °F 38% 29.83 in 6.2 mi WNW 16.1 mph 31.1 mph N/A   Unknown
2:30 PM 69.8 °F - 42.8 °F 38% 29.83 in 6.2 mi WNW 19.6 mph - N/A   Unknown
3:00 PM 66.2 °F - 42.8 °F 43% 29.83 in 6.2 mi WNW 18.4 mph - N/A   Unknown
3:30 PM 66.2 °F - 41.0 °F 40% 29.80 in 6.2 mi NW 12.7 mph 25.3 mph N/A   Unknown
4:00 PM 66.2 °F - 39.2 °F 37% 29.77 in 6.2 mi NW 17.3 mph 31.1 mph N/A   Unknown
4:30 PM 68.0 °F - 41.0 °F 37% 29.77 in 6.2 mi NW 27.6 mph 42.6 mph N/A   Unknown
5:00 PM 66.2 °F - 41.0 °F 40% 29.77 in 6.2 mi NW 26.5 mph 38.0 mph N/A   Unknown
5:30 PM 64.4 °F - 42.8 °F 45% 29.74 in 6.2 mi NW 20.7 mph 33.4 mph N/A   Unknown
6:00 PM 66.2 °F - 42.8 °F 43% 29.71 in 6.2 mi NW 26.5 mph 43.7 mph N/A   Unknown
6:30 PM 64.4 °F - 42.8 °F 45% 29.71 in 6.2 mi NNW 27.6 mph 39.1 mph N/A   Unknown
7:00 PM 64.4 °F - 42.8 °F 45% 29.71 in 6.2 mi NNW 34.5 mph 46.0 mph N/A   Unknown
7:30 PM 62.6 °F - 42.8 °F 48% 29.74 in 6.2 mi NNW 24.2 mph - N/A   Unknown
8:00 PM 60.8 °F - 44.6 °F 55% 29.74 in 6.2 mi North 18.4 mph - N/A   Unknown
8:30 PM 60.8 °F - 44.6 °F 55% 29.71 in 6.2 mi North 17.3 mph - N/A   Partly Cloudy
9:00 PM 59.0 °F - 44.6 °F 59% 29.71 in 6.2 mi North 11.5 mph - N/A   Unknown
9:30 PM 60.8 °F - 44.6 °F 55% 29.71 in 6.2 mi North 13.8 mph - N/A   Unknown
10:00 PM 59.0 °F - 44.6 °F 59% 29.71 in 6.2 mi North 12.7 mph - N/A   Unknown
10:30 PM 62.6 °F - 42.8 °F 48% 29.68 in 6.2 mi North 8.1 mph - N/A   Unknown
11:00 PM 62.6 °F - 42.8 °F 48% 29.68 in 6.2 mi NNW 12.7 mph - N/A   Unknown
11:30 PM 64.4 °F - 42.8 °F 45% 29.68 in 6.2 mi NNW 10.4 mph - N/A   Unknown